Flag for Sao Tome and Principe Weather past 2 weeks in São Tomé, Sao Tome and Principe

Now
82 °F

Partly sunny.


Feels Like: 89 °F
Forecast: 81 / 87 °F
Wind: 2 mph from East

Location: S. Tome

Current Time: Apr 2, 2015 at 10:05:57 AM

Latest Report: Apr 2, 2015 at 9:00 AM


Visibility: N/A

Pressure: 29.89 "Hg

Humidity: 79%

Dew point: 75 °F

Location of São ToméLocation

Historic Weather in São Tomé — Graph

°F

São Tomé temperature yesterday

Maximum temperature yesterday: 86 °F (at 11:00 AM)
Minimum temperature yesterday: 72 °F (at 6:00 AM)
Average temperature yesterday: 80 °F

Past Weeks' High & Low Weather Summary

 TemperatureHumidityPressure
High90 °F (Mar 21, 10:00 AM)100% (Mar 19, 9:00 AM)30.01 "Hg (Mar 19, 9:00 AM)
Low72 °F (Mar 19, 9:00 AM)70% (Mar 20, 10:00 AM)29.71 "Hg (Mar 18, 4:00 PM)
Average80 °F87%29.84 "Hg
* Reported Mar 18 8:00 AM — Apr 2 8:00 AM, São Tomé, Weather by CustomWeather, © 2015

Note: Actual official high and low records may vary slightly from our data, if they occured in-between our weather recording intervals... More about our weather records

Advertising

São Tomé weather history for previous 24 hours

 ConditionsComfort  
Time TempWeatherWind HumidityBarometerVisibility
8:00 AM
Thu, Apr 2
81 °FBroken clouds.No wind84%29.89 "HgN/A
7:00 AM77 °FPartly sunny.5 mph89%29.86 "HgN/A
6:00 AM75 °FPartly sunny.7 mph89%29.86 "HgN/A
4:00 AM75 °FPassing clouds.9 mph94%29.83 "HgN/A
12:00 AM77 °FPassing clouds.7 mph89%29.92 "HgN/A
11:00 PM
Wed, Apr 1
77 °FPassing clouds.5 mph94%29.92 "HgN/A
10:00 PM79 °FPassing clouds.5 mph94%29.89 "HgN/A
9:00 PM79 °FPassing clouds.5 mph84%29.89 "HgN/A
8:00 PM81 °FPassing clouds.5 mph84%29.89 "HgN/A
7:00 PM82 °FPassing clouds.2 mph79%29.89 "HgN/A
6:00 PM82 °FPassing clouds.2 mph79%29.86 "HgN/A
5:00 PM84 °FPartly sunny.5 mph74%29.86 "HgN/A
4:00 PM86 °FBroken clouds.5 mph70%29.83 "HgN/A
2:00 PM84 °FPartly sunny.16 mph70%29.86 "HgN/A
11:00 AM86 °FScattered clouds.7 mph70%29.92 "HgN/A
10:00 AM84 °FPartly sunny.5 mph74%29.92 "HgN/A
Weather by CustomWeather, © 2015

See weather overviewHow to use our weather pages